Regional Weather Roundup
Issued by NWS Spokane, WA

Home | Current Version | Previous Version | Text Only | Print | Product List | Glossary On
Versions: 1 2 3 4 5 6 7 8 9 10 11 12 13 14 15 16 17 18 19 20 21 22 23 24 25 26 27 28 29 30 31 32 33 34 35 36 37 38 39 40 41 42 43 44 45 46 47 48 49 50
000
NZUS01 KOTX 270710
RWROTX
EASTERN WASHINGTON/NORTHERN IDAHO ROUNDUP
NATIONAL WEATHER SERVICE, SPOKANE WA
1100 PM PST THU FEB 26 2015

Note: "fair" indicated few or no clouds below 12,000 feet with no
significant weather and/or obstructions to visibility.

...NORTHEAST WASHINGTON AND NORTHERN IDAHO PANHANDLE...

CITY           SKY/WX    TMP DP  RH WIND       PRES   REMARKS
SPOKANE INTL   PTCLDY    33  30  88 NE3       29.89F
SPOKANE DOWNTO PTCLDY    33  29  85 CALM      29.92F
COEUR D ALENE  CLOUDY    34  28  80 NE6       29.90F WCI  29
DEER PARK      PTCLDY    29  28  96 NW3       29.91F
SANDPOINT      MOCLDY    32  32 100 CALM      29.92F
BONNERS FERRY  CLOUDY    32  27  80 CALM      29.92F

...SOUTHEAST WASHINGTON AND SOUTHERN IDAHO PANHANDLE...

CITY           SKY/WX    TMP DP  RH WIND       PRES   REMARKS
WALLA WALLA    MOCLDY    42  34  73 E8        29.87F
PULLMAN/MOSCOW CLOUDY    37  31  78 CALM      29.89F
LEWISTON       CLOUDY    40  38  93 CALM      29.90F
LOWELL           N/A     36  32  85 CALM      29.95F

...COLUMBIA BASIN...

CITY           SKY/WX    TMP DP  RH WIND       PRES   REMARKS
EPHRATA        CLOUDY    39  34  82 N8        29.89F
MOSES LAKE     MOCLDY    34  31  88 NE7       29.90F WCI  28
TRI CITIES     CLOUDY    44  38  79 NE5       29.89F
HERMISTON      CLOUDY    47  40  76 SE5       29.87F
PENDLETON      CLOUDY    44  39  82 SE8       29.87F

...EAST SLOPES CASCADES...

CITY           SKY/WX    TMP DP  RH WIND       PRES   REMARKS
THE DALLES     CLOUDY    48  42  80 CALM      29.87F
YAKIMA         CLOUDY    49  39  68 CALM      29.88F
ELLENSBURG     CLOUDY    44  39  82 CALM      29.87F
WENATCHEE      CLOUDY    46  31  55 E7        29.87F
OMAK           CLOUDY    40  28  62 W5        29.90F

...SOUTHERN BRITISH COLUMBIA...

CITY           SKY/WX    TMP DP  RH WIND       PRES   REMARKS
PENTICTON      CLOUDY    37  30  75 NW5       29.92F

...WESTERN MONTANA...

CITY           SKY/WX    TMP DP  RH WIND       PRES   REMARKS
MISSOULA       MOCLDY    27  13  55 SE10      29.95F WCI  17

...NEIGHBORING CITIES...

CITY           SKY/WX    TMP DP  RH WIND       PRES   REMARKS
SEATTLE        LGT RAIN  49  47  93 SE7       29.84F
CALGARY        MOCLDY    18  10  73 N12       29.98S WCI   5



USA.gov is the U.S. government's official web portal to all federal, state and local government web resources and services.